Regional Weather Roundup
Issued by NWS New Orleans/Baton Rouge, LA

Home | Current Version | Previous Version | Graphics & Text | Print | Product List | Glossary On
Versions: 1 2 3 4 5 6 7 8 9 10 11 12 13 14 15 16 17 18 19 20 21 22 23 24 25 26 27 28 29 30 31 32 33 34 35 36 37 38 39 40 41 42 43 44 45 46 47 48 49 50
133
ASUS44 KLIX 190907
RWRLIX
NEW ORLEANS REGIONAL WEATHER ROUNDUP
NATIONAL WEATHER SERVICE NEW ORLEANS LA
400 AM CDT SUN APR 19 2015

NOTE: "FAIR" INDICATES FEW OR NO CLOUDS BELOW 12,000 FEET WITH NO
      SIGNIFICANT WEATHER AND/OR OBSTRUCTIONS TO VISIBILITY.
      SKY/WX - SKY CONDITION AND SIGNIFICANT WEATHER.
      TMP - AIR TEMPERATURE.     DP    - DEWPOINT TEMPERATURE.
      RH  - RELATIVE HUMIDITY.   PRES  - PRESSURE.
      HI  - HEAT INDEX.          WCI   - WIND CHILL INDEX.

*  THESE STATIONS ARE NOT NWS OR FAA STATIONS AND ARE NOT UNDER
   NWS QUALITY CONTROL.

LAZ038-040-048-061>063-065>067-069-191000-
SOUTHEAST LOUISIANA

CITY           SKY/WX    TMP DP  RH WIND       PRES   REMARKS
N.O. AUDUBON     N/A     70  68  93 MISG        N/A
N.O. INTL ARPT MOCLDY    71  68  90 SW9       29.80R
N.O. LAKEFRONT CLOUDY    75  70  84 SW12      29.80S
SLIDELL        CLOUDY    73  71  93 VRB6      29.79S
BATON ROUGE    MOCLDY    70  68  93 SW8       29.79S
BOOTHVILLE     MOCLDY    73  71  93 SW3       29.80S
BELLE CHASSE   CLOUDY    71  69  93 W3        29.79S
BOGALUSA*        N/A     70  67  88 SW3       29.80S
GALLIANO*      PTSUNNY   70  69  95 W3        29.80R
NEW ROADS*     CLOUDY    70  69  96 SW9       29.80R
GONZALES*      CLOUDY    71  71 100 CALM      29.78F
HAMMOND*       MOCLDY    72  66  83 SW6       29.81S
HOUMA*         CLOUDY    71  70  98 CALM      29.80R
PORT FOURCHON* NOT AVBL

$$

MSZ070-080>082-191000-
SOUTHERN MISSISSIPPI

CITY           SKY/WX    TMP DP  RH WIND       PRES   REMARKS
MCCOMB         CLOUDY    69  68  96 SW8       29.78F
GULFPORT       CLOUDY    73  69  87 S7        29.79S
BILOXI         MOCLDY    73  72  97 SW13      29.79S
PASCAGOULA     MOCLDY    72  70  93 S6        29.79F

$$

COASTAL OBSERVATIONS
LAKE AND NEARSHORE STATIONS

STATION/POSITION TIME  TEMP    WIND        PRES    WAVE
                       AIR SEA DIR/SP/G            HT/PER
                 (UTC) (F)     (DEG/KT/KT) (MB)    (FT/S)
PASCAGOULA       0800   74     190/  8/ 11 1009.1
WAVELAND YACHT   0800   72 73  200/  8/ 13 1008.7
GRAND ISLE       0800   73 75  230/  5/  7 1008.3
SOUTHWEST PASS   0800   73 63  190/ 10/ 13 1008.8
NEW CANAL        0800   72     200/  7/  9 1009.1
SHELL BEACH      0800   72 75  200/  5/  7 1008.2

OFFSHORE STATIONS

STATION/POSITION TIME  TEMP    WIND        PRES    WAVE
                       AIR SEA DIR/SP/G            HT/PER
                 (UTC) (F)     (DEG/KT/KT) (MB)    (FT/S)
64 S DAUPHIN ISL 0850   76 74  160/ 16/ 17 1008.8    3/ 4

$$




USA.gov is the U.S. government's official web portal to all federal, state and local government web resources and services.